This is the latest recevied weather packets stored in our database for station/object wb2ifs-13. If no packets are shown the sender has not sent any weather packets the latest 10 day(s).
| Time | Temp. | Humidity | Pressure | Rain* | Wind** | Luminosity | Snow |
|---|---|---|---|---|---|---|---|
| 1777957200 | 16.11° C | 61% | 1012.3 hPa | 0 mm | - | - | - |
| 1777956299 | 17.22° C | 60% | 1012.4 hPa | 0 mm | - | - | - |
| 1777955400 | 17.22° C | 59% | 1012.3 hPa | 0 mm | - | - | - |
| 1777954498 | 17.22° C | 58% | 1012.3 hPa | 0 mm | - | - | - |
| 1777953604 | 17.78° C | 57% | 1012.2 hPa | 0 mm | - | - | - |
| 1777952701 | 17.78° C | 56% | 1012.1 hPa | 0 mm | - | - | - |
| 1777951801 | 18.33° C | 55% | 1012.2 hPa | 0 mm | - | - | - |
| 1777950901 | 18.33° C | 54% | 1012.1 hPa | 0 mm | - | - | - |
| 1777950001 | 18.33° C | 54% | 1012 hPa | 0 mm | - | - | - |
| 1777949100 | 18.33° C | 54% | 1012 hPa | 0 mm | - | - | - |
| 1777948199 | 18.33° C | 55% | 1012 hPa | 0 mm | - | - | - |
| 1777947300 | 17.78° C | 56% | 1012 hPa | 0 mm | - | - | - |
| 1777946401 | 18.33° C | 55% | 1012.1 hPa | 0 mm | - | - | - |
| 1777945500 | 18.33° C | 54% | 1011.9 hPa | 0 mm | - | - | - |
| 1777944599 | 18.89° C | 54% | 1011.8 hPa | 0 mm | - | - | - |
| 1777943700 | 18.89° C | 53% | 1011.8 hPa | 0 mm | - | - | - |
| 1777942802 | 19.44° C | 51% | 1011.6 hPa | 0 mm | - | - | - |
| 1777941899 | 20° C | 49% | 1011.4 hPa | 0 mm | - | - | - |
| 1777940999 | 20.56° C | 47% | 1011.3 hPa | 0 mm | - | - | - |
| 1777940100 | 21.11° C | 46% | 1011.4 hPa | 0 mm | - | - | - |
| 1777939202 | 21.67° C | 44% | 1011.4 hPa | 0 mm | - | - | - |
| 1777938301 | 22.22° C | 42% | 1011.1 hPa | 0 mm | - | - | - |
| 1777937401 | 22.22° C | 42% | 1011.1 hPa | 0 mm | - | - | - |
| 1777936500 | 22.78° C | 41% | 1011 hPa | 0 mm | - | - | - |
| 1777935602 | 23.33° C | 40% | 1011.1 hPa | 0 mm | - | - | - |
* Rain latest hour (hover to see other rain measurements)
** Current wind speed in m/s (hover to see current wind gust speed)